COSMOS 1275 DEB, 12963

Orbit data source: Space-Track

COSMOS 1275 DEB, 12963 is space debris in LEO originally from a launch on Thu, 04 Jun 1981 UTC launched from the Plesetsk Missile And Space Complex (PKMTR). Debris objects in space refer to the collection of defunct objects orbiting the Earth. Examples of debris include non-operational satellites, rocket bodies, and fragments generated from explosions, collisions, or faulty payload assembly.

Loading next visibility...
Identifier
12963, 1981-053EJ
Orbit
LEO
Country
Flag of CISCIS
Related business
Manufacturer
Unknown
Mission
Spacecraft
Bus & Motor
Unknown
Mass
Unknown
Launch date (UTC)
1981-06-04 (45 years ago)
Launch vehicle
Unknown
Launch site
Plesetsk Missile And Space Complex (PKMTR)
Object type
Payload
Rocket body
Debris
Shape & HBR
Unknown shape, 0.1 m
Radar Cross Section
Medium (>0.1 m² and <1 m²)

Expand to show TLE details & history
Last TLE update: 2 days ago

TLE from 2 days ago
0 COSMOS 1275 DEB
1 12963U 81053EJ  26171.44674970  .00000319  00000-0  27591-3 0  9996
2 12963  82.9448 170.1565 0022724 204.8549 307.5549 13.83332783246301
Epoch: 2026-06-20T10:43Z
TLE epoch observation values (Epoch: 2026-06-20T10:43:19.174Z)
Latitude
27.60853°
Longitude
-83.02631°
Altitude
945.346 km
Speed
7.387 km/s
True Right ascension
23h 05m 51s
True Declination
27° 28' 16"
Sunlit
Object was in daylight at epoch
Visualization orbit readout
Latitude
Unknown
Longitude
Unknown
Altitude
Unknown
Speed
Unknown
Apparent Right ascension
Unknown
Apparent Declination
Unknown
Sunlit
N/A
Visualization observer readout
Local Sidereal Time
06:13:18
Azimuth
Unknown
Elevation
Unknown
Doppler factor
Unknown
Orbital elements
Apogee altitude
965.877 km
Perigee altitude
932.576 km
Semi-major axis
7,327.364 km
Eccentricity
0.00227
Inclination
82.9448°
RAAN
170.1565°
Arg. of periapsis
204.8549°
True anomaly
307.34811°
Mean anomaly
307.5549°
Eccentric anomaly
307.45154°
Mean motion
3.46036 °/min
Orbital period
104.04 mins
BSTAR
0.00027591
Loading maneuver chart data...
Computing Atmospheric mass density...
Loading historical data...
Loading historical data...
Loading historical data...
Loading historical data...
Loading historical data...
Loading historical data...
Loading historical data...

Documentation

Showing up to 5 results
|